Terminal Aerodrome Forecast
Issued by NWS Green Bay, WI

Home | Current Version | Previous Version | Graphics & Text | Print | Product List | Glossary On
Versions: 1 2 3 4 5 6 7 8 9 10 11 12 13 14 15 16 17 18 19 20 21 22 23 24 25 26 27 28 29 30 31 32 33 34 35 36
996
FTUS43 KGRB 100214 AAB
TAFGRB
TAF AMD
KGRB 100214Z 1002/1024 33010KT P6SM BKN035
      TEMPO 1002/1004 4SM -SN
     FM100400 32011G17KT P6SM BKN040
      TEMPO 1008/1012 SCT040
     FM101400 32012G20KT P6SM OVC050=

USA.gov is the U.S. government's official web portal to all federal, state and local government web resources and services.